Wind_Speed
30 28 26 25 25 24 23 22 20 18 18 18 18 18 18 17 16 16 16 16 18 18 18 18 17 16 16 15 13 14 13 10 9 10 13 19 27 16 9 20 16 15 16 14 18 17 11 9 10 8 5 3 2 0 1 1 2 3 2 2 1 2 2 2 1 2 3 2 2 1 3 5 1 2 1 2 5 3 3 4 3 6 6 8 15 25 28 27
30 29 28 27 26 25 24 23 22 20 19 18 17 17 18 18 16 16 16 16 16 17 19 18 17 15 13 14 12 12 11 10 9 11 21 22 23 16 9 18 16 17 20 14 17 16 9 6 7 7 5 2 2 1 1 1 3 2 3 3 2 3 2 2 3 1 2 3 3 1 3 5 3 1 1 1 1 1 4 2 3 7 6 10 18 25 28 27
30 30 29 28 27 25 25 23 23 22 20 19 17 17 17 18 17 16 15 16 16 16 19 18 17 14 12 14 13 12 10 6 5 12 27 24 21 20 15 19 16 16 21 14 13 11 6 5 8 7 4 1 0 2 1 0 1 2 3 3 4 4 1 2 2 1 0 2 4 1 2 4 1 0 2 1 0 2 5 3 3 5 6 8 12 21 25 25
30 30 29 29 28 27 26 24 23 22 21 20 19 17 16 17 17 16 15 15 16 16 19 19 17 14 13 15 15 14 8 1 4 14 29 26 24 25 19 20 19 16 17 15 13 9 4 6 9 7 3 2 2 2 2 2 1 1 3 5 4 2 1 2 3 2 3 0 3 1 3 3 1 1 2 2 2 2 4 6 7 9 11 11 10 16 21 21
30 29 29 28 28 28 27 25 25 24 23 21 20 18 17 17 17 17 16 15 16 17 18 18 18 16 14 16 17 14 8 0 4 13 29 29 27 29 24 20 21 18 15 15 14 8 6 9 7 4 3 3 3 2 3 4 2 2 2 4 4 0 1 2 3 3 3 2 2 3 4 0 1 1 2 4 2 4 4 6 9 10 13 14 14 16 18 18
31 29 28 27 27 27 27 26 26 26 25 23 21 19 18 18 17 18 17 16 16 17 18 18 19 18 17 18 18 15 9 3 3 4 20 30 30 31 28 22 21 21 16 15 14 7 4 7 5 4 3 3 6 5 4 4 2 2 3 3 4 2 2 2 2 1 2 3 3 2 1 1 1 2 3 6 6 7 6 6 8 11 17 20 19 17 16 15
31 29 28 27 27 27 26 26 25 25 26 25 23 21 19 19 18 18 17 17 17 17 18 18 19 20 20 19 15 12 6 6 4 7 9 27 32 32 30 24 23 21 17 15 12 7 4 7 6 6 4 3 7 6 4 5 1 2 3 4 5 2 1 4 2 2 2 2 1 1 1 1 1 2 1 4 6 7 7 5 8 14 20 20 17 16 16 17
32 31 29 28 27 27 26 26 25 24 25 26 25 23 21 20 18 18 17 17 17 17 18 18 19 21 23 21 11 5 5 13 11 11 6 28 32 32 30 25 25 22 21 19 15 10 6 10 10 6 5 3 6 6 4 6 2 4 5 5 5 3 2 4 2 3 3 3 3 1 1 4 6 3 1 5 7 7 6 4 8 12 15 15 14 14 15 16
32 32 30 29 28 27 27 26 25 25 25 25 25 24 22 21 19 18 17 17 17 18 18 18 20 21 24 18 7 3 10 23 18 11 4 30 30 32 32 28 28 25 22 20 16 10 3 8 10 5 4 4 5 6 7 7 4 6 7 5 5 4 3 4 2 2 2 3 1 1 4 7 6 2 2 7 8 8 5 6 8 11 12 12 12 13 14 14
33 32 31 31 29 28 27 26 26 25 24 24 24 24 22 21 20 19 18 17 18 18 18 19 21 24 25 15 7 7 11 19 19 5 8 30 30 32 32 30 32 28 23 18 15 9 0 2 4 1 0 3 3 4 8 7 5 7 5 3 5 3 1 2 1 3 3 4 4 4 7 7 5 2 3 6 7 4 5 7 7 11 11 12 10 11 15 15
34 32 32 32 31 30 28 27 26 25 25 24 24 24 22 21 20 20 18 18 19 19 19 19 22 28 26 14 8 10 8 11 16 8 12 28 32 33 33 33 34 30 24 16 14 10 3 2 5 3 2 2 2 2 5 5 5 8 6 4 2 2 3 1 2 4 2 3 3 2 6 7 3 3 5 7 6 3 8 8 7 9 10 10 10 10 12 15
35 34 32 32 31 31 30 29 27 26 25 23 24 23 22 22 21 21 19 18 19 19 20 19 22 29 20 10 10 8 6 12 18 13 15 27 33 33 33 34 34 34 28 19 15 13 8 3 7 3 3 0 3 3 4 3 5 6 6 5 2 2 3 3 2 3 1 1 2 4 5 8 5 6 7 9 9 5 8 8 8 9 8 8 9 9 10 14
35 34 33 32 31 31 31 30 29 27 26 24 24 23 22 21 21 22 20 19 20 20 21 19 22 24 11 3 8 5 4 13 21 19 18 25 29 29 31 33 32 32 32 27 23 19 14 10 9 5 3 2 3 2 2 2 5 4 4 4 2 1 4 6 5 3 3 4 3 4 4 6 5 7 8 8 8 7 7 8 8 7 7 7 8 8 8 12
35 34 33 32 32 31 31 31 30 28 27 25 24 23 22 20 21 22 20 20 21 20 21 21 22 18 6 2 4 7 8 14 24 24 23 25 21 20 24 29 28 25 24 23 24 21 16 13 10 5 3 3 3 1 3 3 3 4 3 2 3 2 4 5 6 6 5 5 4 4 4 7 4 6 6 6 5 10 9 8 7 7 7 7 7 8 8 11
34 34 33 32 32 32 31 30 30 30 28 26 25 24 22 20 20 21 21 20 20 21 20 21 21 13 3 5 3 12 16 16 23 27 29 29 22 16 20 27 25 21 18 16 18 17 14 12 9 6 2 4 2 3 4 2 1 3 3 3 3 4 3 3 5 9 9 6 7 7 5 7 6 8 8 4 6 10 8 7 7 7 8 8 7 7 7 9
34 33 33 32 31 32 31 30 30 30 29 27 25 24 23 20 20 20 20 19 18 21 20 17 21 13 1 3 5 13 15 13 21 27 29 33 29 21 22 27 22 19 19 16 14 12 13 11 5 4 1 3 2 4 4 2 1 2 3 3 4 5 3 4 5 9 12 6 6 9 6 4 4 6 6 4 6 9 8 8 7 8 9 9 7 7 7 7
34 34 33 32 32 31 31 31 30 30 30 28 25 24 23 20 19 19 18 18 18 22 20 13 19 14 2 1 5 8 12 12 19 24 28 34 32 23 20 19 14 14 16 14 12 10 9 7 2 3 3 3 3 4 4 4 4 3 3 2 3 6 6 4 4 6 8 8 6 8 8 8 8 6 5 4 4 7 7 7 7 7 8 8 7 7 7 8
34 34 33 32 32 32 32 31 30 30 29 27 25 24 23 19 18 17 16 17 15 17 13 8 15 10 4 6 4 6 16 20 21 22 27 31 28 27 24 16 11 13 11 7 8 7 3 1 2 4 4 4 5 5 6 4 4 5 5 4 3 5 7 6 4 4 6 7 6 6 6 13 11 7 7 7 5 5 7 7 7 7 7 8 8 8 8 10
33 32 33 32 32 32 32 31 31 31 29 27 25 22 17 12 12 14 15 16 12 8 5 6 11 6 2 8 7 8 20 26 23 22 26 27 24 25 20 9 8 10 9 6 6 7 3 2 3 4 6 8 8 9 7 4 7 7 6 6 5 5 6 6 5 5 7 6 6 7 8 13 10 7 9 10 7 7 8 7 7 7 7 7 8 8 9 10
32 32 33 32 32 32 32 32 32 31 30 27 25 19 10 7 6 8 9 9 10 6 3 8 13 6 3 3 7 11 19 23 17 17 26 29 26 22 8 4 5 5 7 9 8 7 6 5 6 9 11 11 10 10 7 4 7 7 6 6 6 5 5 6 6 6 6 6 7 9 9 12 11 8 9 10 8 8 9 8 8 8 7 7 9 10 10 11
33 32 33 33 33 33 33 33 33 33 31 29 28 15 5 11 8 7 9 5 12 12 3 8 15 8 2 3 7 12 12 12 8 10 24 28 26 21 7 5 9 6 8 9 7 6 7 7 11 13 12 12 12 11 9 7 6 6 6 5 6 6 5 5 5 6 6 5 6 7 7 11 13 10 9 8 8 10 11 10 10 11 10 8 9 12 12 10
32 31 33 34 34 34 34 34 33 33 32 30 29 12 7 19 11 7 15 4 10 16 3 8 14 9 1 4 7 12 8 8 8 9 19 22 19 17 11 11 12 10 10 7 6 6 7 10 15 14 12 13 12 11 11 10 7 3 4 5 5 5 3 3 1 2 4 3 4 4 5 10 12 10 10 9 10 12 12 12 12 12 11 10 10 12 11 10
32 32 33 33 34 36 35 34 33 32 33 29 27 19 19 29 17 10 15 3 3 13 5 6 11 10 6 2 5 12 9 11 11 12 19 19 13 12 13 15 16 14 13 11 9 8 9 14 16 14 11 13 13 11 11 8 7 4 3 4 4 4 3 2 1 1 2 3 2 2 3 7 9 10 10 12 13 13 13 14 14 12 12 13 13 11 11 12
33 33 34 33 35 36 34 35 32 31 36 32 31 32 28 27 21 14 12 1 1 9 9 7 6 8 7 2 5 9 6 7 8 12 20 18 10 9 11 15 18 15 14 17 15 14 14 12 13 15 13 14 13 11 12 8 6 7 5 5 3 4 5 3 3 4 0 2 1 1 4 5 7 9 11 10 10 13 14 13 13 12 11 11 11 11 13 14
34 35 34 35 34 35 36 33 29 33 36 30 31 36 27 22 24 17 7 1 3 4 8 9 2 5 8 5 5 5 2 2 3 9 18 18 13 11 9 9 12 15 18 20 17 15 14 8 13 16 14 14 13 12 14 11 7 7 8 8 6 6 5 3 5 4 2 4 3 2 2 6 5 7 9 6 4 9 11 11 13 13 12 10 10 11 12 13
34 35 35 36 34 36 32 20 27 37 28 23 32 35 26 23 26 19 6 1 4 3 9 10 4 10 14 7 4 5 2 4 2 6 15 20 16 11 9 6 4 12 18 17 11 6 6 10 15 15 14 15 13 12 14 13 8 6 8 10 9 7 5 5 6 3 1 3 3 4 3 5 5 7 9 7 6 8 9 9 12 12 12 12 11 12 12 12
35 36 37 38 36 38 26 13 28 33 17 22 36 34 28 25 26 19 5 3 5 5 9 8 6 15 18 11 11 10 5 4 4 3 11 20 15 5 9 12 6 8 10 8 6 4 9 14 14 15 16 15 12 11 14 15 10 6 7 11 10 9 5 4 6 3 2 1 3 2 3 3 6 7 9 9 9 11 10 10 12 12 13 14 14 14 13 14
36 37 38 38 39 43 32 20 26 25 21 31 36 34 32 28 25 16 4 7 4 6 8 5 5 11 12 10 14 10 2 4 6 6 13 23 17 3 8 16 14 13 12 10 10 8 14 18 18 19 16 12 12 11 12 15 10 4 8 12 10 7 2 2 2 2 1 1 4 3 2 2 7 6 5 6 8 10 12 12 12 12 15 16 16 16 15 14
37 37 39 39 39 43 36 25 26 26 28 31 31 35 33 25 18 7 4 8 2 3 6 8 7 7 8 9 11 5 2 3 2 4 11 19 15 4 5 12 15 15 15 16 13 7 10 16 19 20 14 11 12 9 12 16 9 3 8 9 5 4 3 3 1 3 2 1 5 5 4 3 6 5 3 2 4 9 11 11 11 13 14 15 15 15 15 13
38 38 39 39 37 39 32 23 28 30 28 30 35 37 30 18 8 3 9 7 3 1 4 9 10 9 13 12 8 6 4 3 1 3 7 11 10 5 1 3 7 10 11 14 11 3 5 9 11 12 11 10 9 9 11 15 10 6 7 6 6 4 4 3 1 4 1 6 5 8 8 4 5 4 4 4 5 9 9 8 9 11 12 12 12 13 13 12
39 38 41 41 37 38 28 15 26 34 32 37 41 33 21 8 3 6 8 3 2 4 4 9 13 14 19 17 10 10 9 5 3 3 5 8 8 7 4 3 3 5 9 11 8 2 5 8 6 5 7 9 11 8 6 8 9 8 6 6 6 2 3 2 3 3 4 8 4 7 8 7 7 6 3 5 6 6 8 8 11 12 11 9 10 11 12 11
39 38 41 41 37 38 27 18 31 40 40 45 39 22 11 5 6 7 4 1 3 7 7 10 15 15 19 18 14 14 12 8 6 5 6 8 8 9 9 9 8 6 7 10 7 3 5 8 7 3 3 10 14 9 3 4 4 4 6 8 7 3 2 3 2 2 5 5 1 5 6 5 9 7 5 11 12 11 10 9 10 11 10 9 8 9 9 8
39 38 39 39 36 35 30 27 37 42 45 46 28 10 7 7 8 7 4 3 4 4 7 10 15 18 20 17 13 14 13 11 10 9 7 7 8 12 14 13 15 10 5 10 11 7 5 6 10 8 3 8 14 11 5 5 6 8 9 11 9 6 5 7 4 1 4 3 1 4 4 3 7 4 9 16 17 15 12 10 9 8 8 9 7 7 7 7
40 38 35 35 32 28 28 33 42 46 45 34 15 8 10 8 6 6 5 5 3 4 11 12 14 17 18 17 13 14 13 10 11 10 7 6 6 10 13 13 16 9 4 9 10 10 11 7 12 15 9 11 15 16 16 13 12 13 9 8 9 6 5 7 5 4 4 2 2 3 3 4 4 3 8 11 12 12 10 9 9 8 8 8 7 6 6 5
39 34 29 29 25 21 29 40 47 50 40 20 6 9 12 9 5 5 5 5 3 5 12 13 15 14 13 12 10 15 14 10 13 10 7 9 6 5 9 11 16 11 6 9 5 7 10 4 9 13 9 16 18 14 15 13 9 7 2 4 6 5 5 3 3 5 5 2 2 3 3 4 4 7 10 8 9 9 8 8 7 8 10 8 7 8 6 5
32 28 24 22 20 22 33 44 50 49 32 13 6 7 8 6 4 4 5 5 3 7 14 13 12 11 10 7 8 14 11 6 13 12 7 12 10 7 7 7 14 15 10 9 4 6 8 4 10 12 8 18 21 13 14 13 8 5 3 5 4 2 5 4 0 1 5 1 3 4 6 4 2 9 12 10 14 11 7 7 6 8 8 6 8 8 7 6
22 20 15 14 20 28 36 45 51 43 22 10 10 7 3 2 3 4 5 4 1 6 14 11 8 9 8 7 7 13 11 4 9 11 8 9 9 11 11 7 11 16 13 9 4 4 6 3 8 11 11 16 15 13 14 9 6 7 7 7 3 3 3 3 1 1 3 4 4 5 9 5 1 6 6 6 13 12 9 8 7 8 6 6 9 9 7 7
19 13 10 10 21 32 38 42 40 27 12 9 10 5 2 2 3 3 3 4 4 3 8 7 5 7 9 9 9 12 13 7 9 10 8 7 4 8 15 10 9 15 15 10 3 3 5 4 1 4 7 7 4 8 10 3 1 3 7 10 7 2 2 4 4 3 4 6 5 4 8 5 6 7 4 4 8 9 9 8 8 9 8 8 9 9 8 7
16 8 6 9 21 32 38 34 22 12 8 9 8 4 2 1 3 4 2 3 4 4 6 3 2 5 8 9 10 13 14 11 10 9 8 8 4 6 14 11 9 15 16 10 4 3 4 5 2 2 3 6 5 6 10 6 4 2 5 8 6 4 5 6 6 3 5 7 6 3 2 4 7 7 6 9 11 10 9 7 7 9 9 9 9 7 7 6
7 3 3 9 21 31 33 23 11 5 6 6 4 3 3 2 2 3 3 3 2 1 4 2 1 6 8 9 10 11 13 13 12 10 7 8 7 6 11 11 10 14 16 12 7 3 3 4 4 1 1 5 7 8 13 14 7 5 7 9 8 4 2 3 4 3 3 4 4 3 3 6 5 5 11 14 14 14 10 7 8 9 9 9 8 7 7 6
2 2 3 9 20 27 24 13 4 2 3 3 2 2 4 4 3 4 5 4 2 1 2 3 2 4 6 8 10 9 9 9 10 8 6 8 8 4 9 13 12 12 14 13 8 5 3 3 6 5 3 6 9 9 13 16 14 11 10 11 11 7 4 4 5 3 2 2 3 3 6 7 5 5 9 12 13 12 8 8 8 8 8 8 6 7 7 6
3 3 3 9 19 23 14 4 2 2 2 3 3 3 6 5 4 5 3 3 3 2 2 3 1 1 2 4 6 8 8 7 9 8 5 8 10 6 8 14 14 11 12 12 10 7 2 2 5 5 4 4 3 2 4 7 11 7 3 7 10 7 6 7 8 5 4 5 4 3 6 7 4 6 9 10 11 8 7 9 7 6 7 7 6 7 6 5
3 4 6 9 14 15 7 3 4 3 1 2 3 4 6 4 3 5 3 1 2 2 2 2 0 0 1 1 4 8 7 4 7 9 6 8 11 8 9 13 14 11 10 10 9 5 2 2 5 3 1 2 2 2 5 3 6 4 1 3 8 9 10 8 6 5 5 8 7 4 7 7 3 3 5 7 8 6 6 8 7 6 6 6 7 7 6 6
3 4 5 7 5 4 2 3 5 3 2 3 4 4 3 3 4 5 4 3 3 2 3 2 1 0 1 2 3 7 6 2 3 5 4 5 7 6 9 12 13 12 9 8 8 6 2 3 6 5 3 1 1 2 2 2 4 5 4 6 9 13 12 5 3 3 5 11 11 7 9 7 3 2 3 2 2 5 5 5 8 7 6 6 6 6 6 6
4 3 2 5 5 3 2 3 3 4 4 4 5 4 2 3 2 4 5 4 3 3 3 2 3 3 3 3 3 2 3 2 2 3 2 1 2 2 6 9 11 11 10 8 8 8 5 5 7 8 9 8 9 10 10 9 8 6 9 14 16 19 19 11 7 6 8 11 12 10 10 5 2 4 4 5 1 4 4 3 4 5 6 7 6 6 7 6
3 3 2 2 4 4 2 1 3 4 4 4 4 2 3 4 2 2 5 4 1 3 4 2 4 5 4 3 4 2 1 2 3 3 2 1 2 1 3 6 6 10 12 9 7 6 3 4 9 11 10 11 9 7 8 13 13 11 14 20 19 19 19 14 8 9 11 8 6 9 12 8 5 5 5 5 3 5 6 5 4 4 6 7 6 6 6 5
3 2 3 3 1 1 1 2 3 2 2 5 4 1 3 5 2 1 3 1 2 4 3 1 3 4 3 4 4 2 2 2 4 3 3 3 2 3 2 5 3 6 9 8 7 4 4 6 13 14 12 8 4 5 7 13 16 18 19 19 17 14 14 13 11 13 10 4 4 10 11 11 11 7 7 9 8 8 8 6 6 6 7 6 5 5 6 6
2 1 2 3 2 2 1 1 2 2 2 4 4 4 5 5 4 3 1 1 4 5 3 1 2 5 7 7 4 3 3 3 3 3 3 3 1 2 2 2 2 5 6 6 6 5 3 6 11 14 14 8 4 8 13 14 16 19 20 20 21 19 19 19 18 18 13 8 13 17 14 15 18 14 14 14 12 10 8 7 7 6 5 5 5 6 8 8
2 3 2 3 3 4 4 3 4 3 3 3 3 4 6 6 5 3 1 3 3 4 3 3 6 8 9 8 6 4 4 4 3 3 3 3 3 2 1 1 1 4 6 6 5 4 3 5 8 12 14 10 5 8 14 16 15 15 17 20 22 23 24 24 23 23 19 15 19 20 19 22 22 15 15 16 11 8 7 6 6 6 6 7 8 9 9 9
2 1 1 3 3 3 4 2 4 4 2 2 2 2 4 6 5 2 1 4 4 3 3 4 6 7 7 7 7 6 7 6 4 3 4 4 2 2 3 2 0 2 4 5 4 3 3 6 9 10 10 9 7 8 13 16 16 16 17 18 19 20 20 21 21 19 17 17 22 22 20 21 14 6 8 10 8 8 9 9 7 7 8 9 9 10 10 10
2 1 2 4 2 3 4 1 4 4 1 2 1 1 2 5 6 3 1 3 5 5 4 4 6 4 3 4 6 7 9 9 8 7 7 6 3 2 2 1 2 2 2 4 4 3 2 4 8 8 6 7 9 11 14 16 16 17 17 18 19 19 19 19 20 19 18 21 24 20 17 18 10 6 8 8 9 11 12 11 9 9 9 10 11 12 12 11
4 3 3 4 2 2 2 2 4 4 1 1 1 0 1 5 7 5 2 2 1 2 3 7 8 5 3 6 9 8 7 8 7 6 6 5 3 2 2 1 3 3 1 2 3 4 4 3 4 7 7 8 10 13 13 12 11 12 16 22 25 25 24 22 21 22 23 21 18 15 18 17 7 8 11 11 10 12 12 11 10 9 10 11 13 13 12 12
Wind_Direction
212 211 209 210 211 211 212 213 213 211 209 209 210 207 206 206 206 207 205 202 206 213 217 220 219 222 225 214 209 217 222 214 201 194 206 220 212 209 216 205 192 183 180 163 163 157 151 163 160 147 123 108 11 344 88 40 101 69 116 127 240 223 235 212 206 217 141 147 220 341 73 114 129 347 11 27 54 90 101 81 71 54 68 106 129 144 149 149
212 211 211 212 212 213 213 213 215 214 212 211 210 209 207 205 208 208 207 205 203 211 215 216 216 216 222 213 206 213 220 216 206 214 221 224 213 201 190 190 183 185 184 167 165 158 153 179 161 131 100 100 344 49 118 352 95 93 134 141 222 221 243 186 176 218 97 143 179 114 94 100 125 194 71 66 324 121 112 96 79 76 82 107 126 138 145 150
208 209 210 209 210 212 213 212 213 214 215 214 214 213 211 206 207 208 207 207 203 207 211 214 216 211 215 209 204 211 211 217 225 235 229 223 211 201 188 188 187 191 196 199 193 174 158 179 169 139 89 148 224 55 131 255 97 123 130 158 233 232 212 110 124 150 24 155 145 149 113 89 65 126 117 141 233 184 171 179 116 125 148 138 138 143 147 151
204 207 207 206 207 209 211 212 212 213 213 215 218 217 215 209 207 208 207 207 205 207 209 211 214 209 209 204 208 209 182 240 249 236 234 222 209 202 187 191 195 194 202 208 202 195 195 174 168 155 121 177 178 82 167 215 177 136 140 171 219 253 166 134 98 51 330 351 130 166 93 78 323 67 138 133 61 284 230 192 183 181 167 156 153 151 154 154
203 205 206 206 206 206 207 209 211 213 212 213 218 218 217 212 209 210 208 210 206 206 209 207 208 207 205 201 209 199 152 130 230 232 237 222 208 202 189 189 195 197 199 194 186 180 192 177 163 162 141 164 166 131 212 224 145 142 211 183 181 107 189 192 105 64 329 341 61 64 82 111 277 64 184 153 154 244 229 194 195 181 162 163 164 159 160 160
203 203 205 206 205 204 203 204 208 213 214 214 215 216 217 214 212 213 211 212 209 207 208 204 203 203 201 199 201 188 162 210 187 239 239 216 206 199 191 190 191 197 190 181 180 141 146 182 175 182 159 151 179 182 196 203 139 150 241 230 193 209 188 162 80 360 338 31 60 88 143 258 360 316 221 170 195 226 220 196 179 172 169 166 163 162 165 169
204 203 203 205 204 204 202 202 204 208 213 215 215 214 215 216 215 215 212 211 212 208 205 204 200 198 196 187 185 185 192 247 236 353 261 207 200 195 191 190 185 189 185 181 181 139 140 207 206 184 163 151 179 196 189 177 188 161 204 226 203 211 168 135 143 247 325 11 186 162 25 337 225 275 238 194 226 236 237 207 154 165 168 161 161 169 175 176
206 206 205 204 205 205 205 203 202 204 209 213 215 214 213 216 217 216 212 208 213 210 204 205 199 195 192 177 161 178 234 229 226 345 283 195 191 190 187 184 180 182 187 186 181 169 182 209 212 177 163 193 178 184 165 145 195 223 203 212 191 192 186 142 167 228 278 266 213 126 334 261 231 205 214 242 248 246 231 180 137 151 158 161 171 177 179 180
206 208 208 208 208 208 208 206 204 204 204 208 213 214 213 215 216 216 213 208 211 210 204 203 199 199 194 175 138 194 235 219 216 348 223 184 180 183 182 179 180 181 184 187 185 186 202 198 201 180 161 193 178 174 165 153 203 216 195 194 187 191 187 149 184 246 281 267 211 341 275 267 251 206 255 246 242 248 210 155 139 145 159 174 180 181 181 182
206 210 211 211 212 212 211 209 208 206 204 206 210 213 214 213 215 216 214 209 210 211 205 201 198 196 191 168 136 210 233 216 214 316 184 179 174 177 180 178 179 179 178 185 192 188 328 170 167 51 164 172 169 170 173 177 192 187 168 160 169 156 166 150 224 296 316 299 274 259 261 273 271 221 259 265 255 241 170 161 157 151 169 183 181 185 185 186
204 208 212 212 213 214 215 214 211 209 207 206 207 211 214 213 214 214 214 211 209 211 207 201 195 193 188 172 178 210 215 201 206 228 191 182 177 175 178 178 178 179 174 179 195 185 155 34 61 41 291 158 119 147 191 202 162 162 139 112 163 57 357 300 316 299 304 296 262 224 267 275 270 215 223 254 258 178 158 173 171 163 177 187 184 188 187 191
200 203 209 213 213 213 216 218 215 212 209 208 207 209 213 213 214 213 214 212 211 213 210 205 199 194 185 182 208 207 198 204 201 203 198 188 182 179 180 180 181 182 176 174 189 188 171 109 80 112 270 321 117 138 212 206 124 143 140 144 225 354 321 252 235 265 240 247 168 82 309 268 235 234 222 237 242 187 169 179 179 181 183 186 188 187 190 194
198 200 204 209 212 211 213 217 219 216 212 209 207 208 212 213 214 213 212 213 212 212 210 207 204 197 179 191 217 195 175 192 185 183 195 194 186 184 186 185 185 185 182 179 182 182 169 148 124 135 286 276 175 166 185 142 113 130 146 154 167 3 271 229 200 236 248 235 183 87 299 252 225 236 233 247 236 185 181 190 189 194 189 192 191 188 195 193
199 199 201 204 209 210 211 214 218 219 215 211 208 208 210 212 214 213 213 214 209 207 208 205 201 193 187 258 208 199 196 173 172 174 183 193 184 178 185 185 184 185 187 182 177 172 163 152 128 104 317 271 206 162 114 101 117 136 138 161 166 185 225 214 194 203 224 229 170 124 254 254 251 248 255 278 214 178 193 205 200 201 198 201 195 191 198 197
199 201 201 203 205 207 209 211 215 219 219 214 208 207 209 210 213 213 214 213 204 201 201 199 194 178 188 274 208 189 188 173 180 180 180 187 181 172 181 181 180 184 189 185 173 170 167 153 118 99 308 284 215 139 129 116 113 150 157 179 197 207 219 243 213 197 212 226 158 151 250 272 259 247 246 242 167 171 195 210 210 206 201 203 201 197 197 202
199 201 202 202 203 206 208 209 212 216 219 216 209 208 209 210 211 213 214 212 205 197 190 189 186 171 151 257 179 178 176 176 189 184 182 185 184 182 179 175 176 179 183 181 171 171 167 150 107 103 126 286 214 138 124 124 198 213 185 167 182 197 222 289 267 214 206 205 176 192 233 274 261 261 258 224 173 173 192 215 219 209 206 204 199 199 194 197
198 200 203 203 204 206 207 209 210 212 217 215 208 207 208 211 211 210 208 206 202 186 177 176 172 171 278 205 153 174 175 181 186 182 184 186 186 180 166 168 174 166 167 172 169 163 155 143 97 116 128 259 221 146 160 181 193 206 184 188 197 186 195 223 266 248 194 182 203 209 231 251 254 280 297 278 213 186 194 220 229 220 214 209 199 196 192 193
199 200 202 203 204 206 207 208 208 209 213 210 205 206 207 209 206 200 193 189 183 169 163 159 157 164 255 205 174 178 177 179 181 183 184 184 184 176 170 174 171 152 144 157 168 159 142 95 122 132 152 214 209 183 194 186 166 171 177 206 222 193 199 199 222 243 172 181 211 190 229 251 251 264 268 259 226 202 213 222 231 230 219 214 205 195 193 195
200 202 202 204 205 206 207 208 208 207 206 205 201 197 195 198 194 190 190 179 167 164 159 160 170 172 208 187 180 174 179 178 175 179 183 181 176 174 175 165 155 160 153 163 177 170 157 96 131 164 186 198 200 199 200 158 152 169 181 195 204 201 213 207 216 225 166 167 216 198 223 249 248 246 252 255 236 218 230 230 232 233 220 213 209 204 200 197
202 202 203 205 206 207 207 207 209 205 199 196 186 176 170 175 179 185 193 188 186 193 136 163 190 194 63 143 163 157 172 178 175 177 184 182 165 159 165 100 136 187 181 177 174 167 163 153 182 198 193 189 190 197 202 181 171 174 178 197 208 208 230 218 214 228 170 156 221 215 223 250 252 240 239 249 248 243 242 236 236 236 225 212 208 211 207 204
203 202 203 206 206 208 209 208 208 203 197 191 178 170 171 176 177 174 171 193 209 202 130 168 199 214 62 83 152 147 154 179 198 190 185 180 160 150 161 149 155 199 209 185 155 153 169 184 204 202 186 178 185 191 195 207 206 181 177 197 211 212 238 234 208 213 179 167 237 223 220 250 254 248 242 240 244 249 244 238 238 236 232 220 209 212 211 212
204 204 204 205 206 207 209 207 207 201 195 189 179 181 211 188 184 171 167 170 215 203 173 160 194 219 169 79 152 152 142 176 204 206 185 175 164 160 165 165 169 188 198 183 148 155 180 207 209 195 174 173 185 190 187 206 223 201 170 179 208 223 246 298 6 164 175 187 246 235 223 252 259 257 253 243 240 245 242 239 237 232 233 229 217 214 212 214
205 205 205 205 204 205 207 206 205 198 190 186 183 193 208 198 193 165 163 127 211 197 199 164 184 205 190 82 162 161 160 177 187 202 186 172 170 172 167 169 178 182 183 184 174 165 192 214 201 176 165 173 181 189 186 199 220 214 166 165 211 222 206 259 17 124 194 200 219 254 253 263 269 269 261 244 236 243 242 238 237 229 226 228 222 215 207 210
206 207 206 205 203 203 204 202 199 193 189 189 193 201 202 193 191 172 152 72 243 186 197 187 181 201 188 119 158 163 164 180 182 193 188 178 162 163 175 175 176 180 183 186 184 189 205 207 175 163 169 172 173 184 187 191 214 216 197 182 201 216 214 217 169 156 245 313 303 320 307 279 253 255 259 249 235 242 243 237 240 235 228 232 229 220 212 208
206 208 207 204 202 201 199 195 192 191 190 192 201 205 194 178 189 186 137 58 238 181 186 186 193 200 169 133 153 148 121 215 207 184 189 191 170 155 181 187 178 181 181 182 187 204 212 175 153 170 173 169 174 184 189 189 198 218 213 200 192 212 229 187 146 135 55 319 266 165 286 283 264 257 260 266 245 240 245 238 238 239 234 235 234 227 222 216
206 208 207 203 201 196 192 192 192 190 187 196 205 200 186 178 189 187 132 65 230 183 171 171 172 176 166 160 143 117 150 224 217 177 188 198 192 169 177 183 190 189 179 178 190 210 202 166 164 173 170 174 184 189 191 185 187 217 203 185 191 214 222 156 151 161 155 268 260 159 198 272 297 283 264 272 272 252 251 243 236 238 235 230 231 230 226 223
206 207 205 203 199 189 186 190 189 184 182 203 202 190 181 182 183 175 147 256 226 159 162 167 173 176 172 167 150 147 190 180 137 187 196 198 200 195 187 176 174 197 174 168 207 190 161 169 171 169 172 182 191 194 189 180 190 219 164 164 192 210 214 174 163 192 203 273 310 209 178 270 279 270 260 256 261 264 260 247 238 235 233 231 231 229 225 222
206 206 204 202 196 190 189 182 175 181 198 199 188 179 178 175 167 156 168 231 194 125 154 163 159 170 166 155 157 170 235 134 153 188 192 198 201 196 195 184 177 184 171 172 202 184 164 173 174 173 178 190 194 190 177 174 194 219 157 168 191 186 202 280 182 174 68 33 288 242 145 276 263 261 275 248 239 257 257 246 241 234 231 231 231 231 227 223
204 203 201 197 193 193 193 180 175 189 196 184 172 172 168 154 143 130 225 221 146 89 163 156 151 153 141 147 168 190 2 93 168 155 167 195 209 212 199 194 185 180 178 190 199 181 173 181 176 173 181 191 187 168 161 175 196 199 154 152 139 113 61 7 165 127 64 291 240 207 167 253 264 241 251 249 222 241 247 244 239 234 231 228 229 233 230 224
202 199 196 191 189 189 187 184 186 187 180 169 166 163 150 135 132 173 218 207 99 71 184 161 167 155 149 161 179 191 182 161 118 93 160 189 207 225 231 184 185 178 185 204 210 186 159 171 166 174 187 180 162 153 165 176 171 131 121 107 83 56 43 34 33 88 91 258 220 178 173 199 272 251 204 215 224 226 231 242 247 244 240 231 228 232 231 224
197 195 191 186 184 182 179 183 185 178 171 165 159 151 140 136 192 202 214 234 95 174 179 159 162 156 162 172 179 179 186 192 154 137 184 190 192 197 180 153 166 179 188 198 209 190 146 151 152 184 190 155 143 154 157 154 151 133 124 124 116 62 19 25 2 69 213 250 221 174 163 169 238 261 232 242 258 241 225 228 240 244 241 233 227 231 231 223
191 189 185 184 181 179 182 182 175 173 168 160 152 147 150 176 215 205 205 290 194 183 173 160 159 161 169 176 182 177 177 191 179 163 185 204 205 191 185 183 172 178 193 184 179 171 164 168 163 162 182 157 154 157 96 99 155 151 137 146 148 157 189 198 218 185 216 252 239 161 146 179 240 257 256 259 264 254 235 227 236 241 242 244 235 235 236 223
184 179 179 181 177 178 186 178 169 168 162 155 149 148 172 198 207 189 162 216 233 161 154 162 162 162 164 174 188 180 178 193 188 180 191 220 226 201 197 196 181 183 184 169 168 162 177 193 172 160 170 176 167 161 154 153 177 186 169 168 174 166 182 201 196 213 232 241 209 143 130 253 271 265 234 243 253 254 248 240 240 240 240 248 243 237 239 223
174 170 170 174 173 176 182 172 165 162 154 149 149 159 183 208 190 155 167 217 261 142 152 162 160 160 166 177 182 172 180 205 194 181 186 215 241 206 201 202 192 190 143 165 180 172 179 196 177 174 171 176 181 179 177 169 177 194 182 171 184 173 182 194 181 203 220 225 219 165 144 210 226 249 235 234 251 263 262 247 241 245 243 247 259 260 253 237
159 157 155 162 168 171 171 165 162 158 151 148 161 172 188 203 174 162 179 193 226 162 150 156 158 160 175 182 175 175 186 200 190 184 190 208 234 211 200 200 191 188 155 169 190 176 190 218 174 176 164 169 184 189 172 156 170 203 162 157 199 183 163 162 170 188 160 109 217 203 232 215 201 279 281 264 262 262 264 262 253 253 255 255 263 262 254 246
138 141 146 156 163 165 165 161 158 157 154 155 174 183 194 196 173 176 167 163 199 157 146 155 163 163 177 179 170 185 194 186 178 184 199 208 224 224 217 210 189 187 178 172 173 175 196 220 174 171 165 177 184 183 171 164 166 178 165 181 195 114 123 122 277 108 103 183 229 193 246 280 313 284 280 270 267 265 265 274 264 251 260 264 257 256 251 240
124 132 140 148 157 162 163 159 157 157 155 162 183 188 183 184 171 164 158 146 142 154 150 156 168 165 169 174 175 182 185 163 168 184 198 198 215 213 209 230 204 193 192 184 193 195 175 172 181 175 177 188 184 171 177 178 148 156 182 179 130 47 77 100 200 54 97 231 247 201 228 249 204 257 277 262 258 263 260 257 256 256 261 262 254 253 252 242
123 124 113 130 152 159 159 156 155 154 149 167 182 170 130 199 169 146 164 143 108 150 165 156 161 167 169 175 177 175 177 175 165 178 193 188 210 202 191 212 218 201 204 197 203 240 167 130 244 202 180 178 145 155 179 221 330 178 178 166 148 167 191 158 186 200 189 222 260 234 225 224 203 223 275 262 240 252 255 243 243 248 243 242 250 254 257 254
120 112 85 131 153 157 158 154 146 137 145 171 179 161 154 194 133 125 168 153 108 136 175 172 127 161 174 178 171 169 179 182 164 169 194 185 193 198 183 191 206 201 207 201 191 238 184 150 180 235 182 154 138 171 184 200 297 352 137 163 174 183 184 181 183 175 182 215 249 264 231 240 226 204 211 238 245 246 241 227 228 235 231 232 240 246 250 244
118 102 76 137 152 156 154 146 128 123 154 165 163 142 133 119 115 104 96 119 101 130 171 184 154 162 173 180 176 173 181 183 172 176 193 172 164 189 184 186 197 197 199 201 205 217 184 172 177 175 314 170 172 193 189 180 174 152 160 182 191 178 143 176 188 154 143 189 234 263 263 255 248 199 193 214 236 241 228 204 215 229 231 233 234 230 227 221
96 95 91 139 151 151 144 134 126 142 131 127 122 108 118 126 127 91 67 88 102 36 128 123 139 160 163 175 181 180 181 183 178 179 188 175 166 174 187 191 194 187 187 197 210 204 184 192 174 161 198 197 187 193 192 185 178 173 178 186 185 172 139 166 207 185 131 182 195 216 258 258 238 201 196 206 226 233 210 186 205 225 228 224 219 212 204 199
92 98 99 135 151 151 140 121 135 117 92 130 143 132 128 124 121 119 99 76 91 84 102 101 75 102 136 159 172 172 171 177 181 182 191 190 182 169 174 190 196 185 182 196 202 188 141 122 150 157 184 197 196 165 143 177 190 188 186 181 178 171 156 178 206 191 179 218 197 185 259 268 231 195 198 210 225 222 196 190 197 211 210 194 196 209 209 209
87 94 88 107 146 157 141 107 128 114 97 137 126 129 130 125 129 135 137 127 115 110 111 110 30 306 128 98 141 162 165 169 184 188 192 194 191 173 153 175 195 193 186 196 194 172 69 108 143 133 99 19 345 28 53 69 191 200 314 184 178 185 183 186 195 165 178 212 203 210 248 258 260 216 205 218 225 210 197 191 171 174 194 188 194 208 211 219
93 99 75 74 119 164 140 126 137 135 152 117 107 122 116 110 135 138 137 140 138 132 116 123 136 9 56 59 119 156 160 154 187 191 192 197 200 177 150 168 192 197 194 196 182 169 187 181 152 139 148 67 18 165 79 53 180 188 202 196 193 193 185 171 154 149 204 212 196 208 237 238 262 321 10 18 195 178 184 180 157 161 189 201 204 208 210 215
98 90 38 38 39 35 91 132 129 137 151 113 106 123 78 54 89 127 132 132 142 144 118 110 129 110 84 50 44 119 139 114 150 176 182 214 233 185 148 162 185 200 209 205 180 171 181 186 173 169 176 180 186 189 181 172 178 191 192 191 196 194 186 183 184 188 217 213 193 206 233 243 310 314 340 3 338 198 207 202 172 173 192 202 206 211 215 216
109 99 107 69 19 25 81 97 84 118 147 116 106 123 88 74 18 80 113 118 145 127 100 111 135 109 89 80 63 79 134 87 105 133 144 183 262 284 120 125 168 208 214 203 181 161 143 194 207 205 202 195 191 193 175 166 170 184 191 192 197 198 191 189 193 203 214 206 189 220 236 247 261 255 270 294 273 235 225 201 192 201 206 211 213 217 223 224
85 94 122 125 80 70 51 14 60 90 162 143 130 136 113 115 140 116 101 123 158 130 90 94 141 123 135 140 101 107 144 99 106 134 155 177 273 320 91 98 115 212 213 202 189 153 121 200 214 220 228 219 145 108 141 163 176 185 189 191 193 193 190 194 208 214 210 198 236 236 234 245 247 233 247 261 246 235 227 202 203 211 203 206 214 223 233 238
79 91 93 89 105 155 146 139 132 92 111 142 136 147 153 149 148 145 113 119 153 152 108 66 188 169 160 158 131 111 126 111 128 161 164 166 180 353 5 44 115 175 184 196 196 158 138 209 209 213 229 230 153 142 158 172 187 190 186 185 186 185 188 197 211 215 202 198 231 228 213 229 237 221 216 228 227 225 220 201 206 205 185 188 202 214 224 224
57 71 66 56 76 141 144 142 147 115 90 118 123 150 163 162 164 176 139 118 163 189 140 147 204 188 162 152 134 125 152 150 163 190 171 158 169 140 88 296 239 156 168 202 206 163 163 210 201 205 223 229 210 176 171 175 188 193 190 188 187 187 190 197 207 213 208 210 231 231 221 229 235 216 206 220 226 228 231 217 202 188 182 193 199 209 218 216
62 81 103 60 56 128 134 107 121 121 80 90 125 180 158 156 174 194 128 133 159 204 189 173 185 180 167 156 147 164 176 151 133 174 161 141 177 179 163 199 252 112 182 213 212 177 193 198 185 193 216 224 216 199 184 179 184 189 193 194 191 190 197 203 208 212 211 219 233 236 235 240 239 175 174 211 214 216 232 231 211 198 198 197 198 212 218 214
45 249 124 98 67 110 132 109 104 113 61 58 131 232 131 162 186 183 191 181 162 176 197 151 136 141 147 161 181 199 188 160 148 162 163 158 173 176 163 155 79 83 217 217 188 182 211 191 176 180 203 213 203 198 191 186 187 191 193 193 192 193 200 206 210 208 202 212 225 231 240 247 235 156 168 195 190 201 215 214 207 206 200 193 201 215 216 212
15 347 46 93 84 76 131 135 94 103 180 172 154 47 119 183 187 167 178 263 183 172 149 126 126 124 141 197 214 215 199 184 171 154 151 158 150 80 59 74 88 99 213 237 199 181 175 175 175 176 196 209 197 192 187 179 188 201 197 192 191 196 201 204 210 212 205 207 215 219 231 238 205 166 202 207 191 199 207 202 201 201 197 201 210 214 211 211
Height
745 748 750 753 755 758 760 762 764 766 768 770 772 774 776 778 780 782 784 786 789 790 792 795 797 799 801 803 805 806 808 809 809 811 811 807 808 811 812 813 815 816 817 817 818 819 821 823 824 824 826 827 831 831 831 832 832 837 843 851 854 850 849 844 841 841 839 840 838 835 834 836 839 836 833 833 835 837 838 839 839 838 838 838 839 840 844 847
742 745 748 751 753 756 758 760 762 764 766 768 770 772 774 776 778 781 783 785 787 789 791 793 796 798 800 802 804 806 807 808 809 809 806 805 808 811 811 812 814 815 816 816 817 818 820 823 823 824 826 830 833 831 832 832 833 839 844 851 852 846 842 838 838 837 836 838 837 834 833 835 838 836 834 837 840 839 841 842 841 842 842 841 841 842 844 846
740 743 746 748 751 754 756 758 761 763 764 767 768 770 773 775 777 779 781 784 785 788 789 792 794 797 800 802 804 806 807 809 809 805 801 804 808 809 810 812 812 814 815 816 816 817 820 823 823 825 828 832 833 833 834 833 835 838 842 850 849 841 838 836 835 835 834 835 835 835 834 834 835 834 834 838 840 840 841 842 842 845 845 843 843 843 844 846
737 740 743 746 749 751 754 756 759 761 763 765 767 769 771 773 776 778 780 782 784 787 788 791 794 796 799 801 804 805 807 811 806 798 798 802 805 807 809 810 811 813 815 815 816 817 820 824 825 826 830 834 834 834 835 834 835 838 840 845 843 837 838 837 835 835 834 834 835 835 835 835 833 832 835 837 841 842 839 837 837 839 841 842 843 843 844 845
734 737 740 743 746 749 751 754 756 759 761 763 766 768 770 772 775 777 779 781 783 786 788 791 793 795 798 799 803 804 808 813 801 791 794 798 802 805 807 809 811 813 814 815 816 818 820 823 826 828 831 836 836 836 836 833 833 839 839 838 837 837 839 837 834 835 834 834 835 836 836 835 832 832 834 836 841 840 834 832 831 832 836 837 839 841 843 845
731 734 738 740 744 747 749 752 754 757 759 762 764 766 768 771 773 776 778 780 782 785 787 790 792 795 797 799 802 803 807 807 793 787 790 793 799 802 805 808 810 812 814 815 816 818 821 822 827 830 831 835 837 837 835 832 833 839 841 836 835 837 838 836 834 834 834 835 837 836 836 834 834 835 832 833 836 833 828 827 827 828 831 833 835 838 841 842
728 731 735 738 741 744 746 749 752 755 757 760 762 765 767 769 772 774 776 779 781 783 786 788 792 794 797 799 802 804 805 797 787 788 788 789 796 799 804 807 809 812 813 815 816 818 821 825 828 828 830 835 837 835 833 832 833 838 841 837 835 836 836 835 834 834 834 836 836 834 834 834 836 836 832 832 831 827 826 825 825 826 828 831 834 836 837 838
725 729 732 735 738 741 744 747 750 753 756 758 761 763 766 768 770 773 775 778 780 782 785 787 791 793 795 797 800 806 805 794 787 788 786 788 793 797 803 805 807 810 811 814 815 817 821 825 826 824 828 833 832 833 832 835 838 838 839 837 834 835 835 834 834 834 834 834 834 833 835 835 834 833 832 831 827 824 825 825 824 826 829 831 832 833 835 836
722 726 729 733 736 739 742 745 748 751 754 756 759 761 764 767 769 772 774 777 778 781 783 785 789 791 794 795 800 804 795 787 789 789 788 789 792 796 801 802 805 808 810 814 814 816 820 822 822 820 825 828 828 831 831 836 841 837 836 835 834 835 834 834 834 834 834 834 833 836 836 833 830 832 832 828 824 823 823 825 825 826 829 831 831 832 833 834
720 723 727 730 733 736 739 742 746 749 752 755 757 760 763 765 768 770 773 775 778 780 782 784 787 789 792 793 800 799 783 783 792 792 791 792 792 796 799 800 803 805 809 812 814 816 818 819 819 819 822 825 827 829 831 833 834 831 833 834 834 835 833 834 835 834 834 833 833 836 837 833 830 833 834 826 822 822 822 825 825 826 829 829 830 831 831 833
717 721 725 728 731 734 736 740 743 746 750 753 756 759 761 764 767 769 772 774 777 779 781 783 785 787 789 791 796 790 778 783 791 794 797 795 793 795 797 799 801 803 806 810 813 814 817 818 817 821 825 825 826 830 831 828 827 828 832 835 835 835 835 834 836 835 835 835 832 833 835 832 831 833 832 825 820 820 822 824 825 826 828 828 829 830 830 831
715 719 722 726 729 732 735 738 741 745 748 751 755 757 760 763 766 768 771 773 776 778 780 782 784 785 787 790 788 782 780 784 788 793 798 797 796 796 796 799 800 801 803 806 810 812 815 816 817 825 829 826 829 834 831 825 827 829 831 838 839 837 838 836 836 835 836 836 830 832 839 836 833 831 827 821 819 820 821 823 824 825 825 827 827 828 829 829
713 717 721 724 727 730 733 736 739 742 746 749 753 756 759 762 764 767 770 772 775 777 779 781 783 784 787 789 784 781 783 785 786 790 796 800 799 798 799 800 801 802 802 803 806 809 813 815 817 824 829 829 831 831 827 824 828 832 833 838 842 845 844 835 835 835 836 836 828 835 849 841 830 827 822 819 818 820 822 822 823 823 823 825 825 826 827 827
711 714 718 722 725 728 731 734 737 741 744 748 751 755 758 761 764 766 769 771 774 776 779 781 782 785 788 785 781 783 784 786 788 787 794 802 802 801 802 801 803 804 805 805 807 809 813 815 817 824 830 831 829 827 828 829 831 835 838 840 843 851 846 832 832 835 836 834 826 838 852 841 829 825 820 818 817 819 821 821 821 822 822 823 823 824 825 825
708 712 716 720 723 726 729 733 736 739 743 746 750 754 757 760 763 765 768 771 773 775 778 780 781 784 789 785 780 782 783 786 788 787 790 799 801 801 801 802 804 805 807 809 809 811 814 815 818 826 833 831 828 830 835 836 835 836 844 849 847 849 845 833 829 831 833 831 826 837 849 838 828 823 817 816 816 818 820 819 820 821 821 821 822 822 823 823
705 709 713 717 720 724 728 731 734 738 741 745 749 753 757 760 762 765 768 770 773 774 777 780 780 783 787 783 778 779 782 784 786 788 789 794 798 798 799 802 804 806 808 810 812 813 814 816 820 827 833 834 831 834 840 844 844 839 843 852 851 849 850 841 831 826 827 830 828 834 841 835 826 820 816 816 816 817 818 818 818 819 819 819 820 821 821 822
702 706 710 714 718 722 726 729 733 736 740 744 748 753 756 759 762 765 768 770 772 774 775 777 778 784 784 779 778 778 779 782 785 789 789 791 795 797 801 804 804 806 808 810 813 814 815 819 824 828 834 837 834 834 844 852 852 846 844 848 848 847 850 846 834 825 824 829 831 832 835 832 824 819 817 817 817 817 817 817 816 817 818 817 817 818 819 820
700 704 707 712 716 720 724 727 731 735 739 743 748 752 756 760 763 765 768 770 772 774 776 776 779 785 782 775 777 776 775 779 782 786 788 791 794 797 801 802 803 806 809 813 814 814 819 822 826 830 835 838 835 834 844 848 846 847 847 846 846 843 845 844 835 826 825 829 831 834 836 830 823 821 819 817 817 818 817 816 815 814 815 816 815 816 816 816
698 702 705 709 713 717 721 725 729 733 738 743 748 753 757 761 764 765 767 768 769 770 771 773 774 775 772 768 770 771 772 776 779 783 788 790 793 797 801 802 803 805 810 815 816 816 820 826 830 832 835 836 833 832 835 835 835 839 841 842 844 843 842 839 831 824 824 831 834 834 835 828 823 823 819 816 816 817 816 814 814 813 812 813 813 813 812 813
695 699 703 707 711 715 719 723 728 732 737 743 747 752 756 760 763 764 765 765 763 761 763 766 765 763 764 765 766 768 772 775 777 780 785 788 790 795 802 805 807 810 811 814 816 814 817 827 830 826 826 828 828 827 827 828 828 831 836 839 839 839 838 832 827 823 822 830 834 831 832 828 823 822 818 815 815 816 816 814 813 811 810 810 811 810 809 809
692 697 700 704 708 713 717 721 726 731 736 741 744 748 749 750 754 754 758 764 761 759 762 763 763 763 764 766 766 767 771 775 777 778 783 787 788 794 802 806 813 817 813 812 814 813 817 825 823 816 817 820 823 823 824 826 827 829 834 838 839 838 835 827 824 824 823 828 831 829 833 829 822 820 816 814 815 814 812 812 811 809 808 807 807 807 806 805
690 694 698 702 706 710 715 720 725 730 736 739 742 744 742 741 744 743 748 759 760 759 762 763 764 766 765 766 766 766 770 775 779 779 781 786 789 792 797 803 812 815 812 813 815 818 823 821 812 809 811 815 819 820 822 826 827 830 834 837 840 836 833 829 826 827 826 828 830 830 833 829 820 817 815 812 812 808 805 806 806 806 806 805 803 803 803 803
687 691 696 700 704 708 713 718 724 730 734 736 738 738 736 738 743 744 747 757 760 761 762 763 764 765 766 767 766 766 769 772 776 778 778 783 786 788 791 798 805 807 811 814 814 818 819 808 801 805 809 813 819 820 822 826 828 831 834 838 839 834 833 835 832 830 828 828 829 830 833 830 822 817 813 808 806 802 800 800 799 800 800 799 797 798 799 799
684 688 693 697 702 707 711 718 724 729 730 733 733 732 734 740 745 746 749 756 760 760 760 761 762 763 765 767 766 767 768 768 770 773 775 778 781 786 788 790 797 803 806 807 808 809 804 794 795 804 807 811 819 821 822 828 831 830 832 836 836 832 831 831 830 831 831 831 828 831 837 831 820 818 811 803 802 800 797 797 796 795 795 794 794 794 793 792
680 685 690 694 700 704 711 718 722 724 727 729 729 730 737 743 746 747 751 758 759 758 760 760 761 762 762 766 767 767 769 768 767 768 772 774 775 780 786 786 790 797 799 801 805 803 797 792 795 803 807 809 815 819 819 823 831 832 828 828 829 828 827 827 829 833 839 838 830 834 843 830 814 814 810 803 803 801 795 796 795 792 791 792 792 791 789 787
678 682 686 692 697 702 711 714 715 720 725 726 725 730 739 742 746 748 753 764 761 756 758 758 759 758 757 764 766 767 771 768 764 766 770 773 771 772 782 785 786 790 791 795 800 798 796 792 793 801 807 809 813 815 814 816 828 833 822 819 823 823 825 827 829 833 840 840 831 831 841 835 819 811 806 803 803 800 795 794 792 789 788 788 787 786 785 784
675 679 683 689 694 700 705 706 709 717 719 719 721 731 739 741 746 748 756 767 757 746 752 755 754 750 750 758 760 763 769 763 763 768 768 771 772 770 777 782 785 786 784 792 799 792 789 794 796 800 805 809 812 812 808 810 824 827 815 815 822 822 826 829 828 832 836 837 834 831 835 840 831 813 802 801 802 800 796 793 789 786 784 782 780 779 779 779
671 676 681 686 690 694 697 700 707 712 710 712 719 730 736 739 745 751 759 760 739 731 744 750 750 748 749 755 755 757 759 755 759 765 765 769 772 772 776 775 777 781 780 788 794 783 779 789 793 795 802 806 804 803 803 807 818 818 810 813 820 823 827 828 829 835 837 839 840 835 834 839 831 811 801 801 803 801 794 789 786 782 780 777 775 773 772 773
668 673 677 683 688 692 697 701 704 706 708 715 722 729 735 740 746 754 758 745 725 726 735 739 745 750 752 756 756 756 756 756 758 759 762 768 770 770 773 770 770 776 779 779 781 778 776 778 780 786 796 798 796 797 799 805 812 812 810 814 820 825 829 831 833 835 839 842 840 835 835 837 824 806 802 804 804 799 789 783 780 775 773 771 770 769 768 769
665 670 675 681 686 691 696 700 701 704 710 717 722 728 735 742 748 751 746 728 721 730 731 731 740 745 750 756 758 757 757 758 759 758 762 766 768 769 768 767 769 776 782 780 778 778 774 772 777 783 787 789 792 795 796 800 805 809 815 820 826 831 832 835 835 834 841 841 832 829 830 836 829 809 801 800 793 787 783 780 776 770 768 767 766 766 764 765
663 667 672 677 681 686 691 694 698 703 710 715 721 730 738 744 747 743 731 718 719 730 729 729 735 738 743 750 753 756 757 758 758 761 766 765 766 769 767 768 773 778 783 784 784 781 777 779 782 780 779 783 790 796 798 800 802 807 816 822 830 838 838 841 841 841 844 837 827 825 826 835 834 808 794 790 782 778 778 775 771 767 765 764 763 763 761 761
660 665 670 674 678 682 686 688 693 700 706 711 718 728 737 742 740 729 723 723 721 721 725 728 730 733 740 745 746 750 753 754 756 761 765 764 762 762 761 761 767 774 779 782 786 787 784 782 780 778 779 779 786 801 809 810 811 813 816 820 832 844 845 845 846 844 841 833 827 828 830 832 821 797 789 787 778 774 773 769 767 764 762 761 760 760 758 759
659 663 669 673 676 680 684 687 693 698 703 709 717 726 732 733 726 717 722 731 721 712 721 727 725 728 736 742 744 746 749 750 752 757 763 764 761 757 755 753 753 759 768 774 780 786 789 785 780 782 784 778 779 798 813 815 816 814 811 812 822 835 842 842 843 841 837 832 826 826 831 829 809 790 783 778 771 767 766 766 765 763 762 759 758 758 757 757
658 663 666 671 675 679 682 686 690 695 702 710 716 723 726 721 715 714 725 732 721 712 717 723 726 729 732 734 738 741 746 750 750 755 764 767 762 756 754 753 752 753 761 770 771 773 778 779 776 775 777 775 774 779 788 795 803 802 796 799 805 814 824 829 833 833 833 833 830 829 829 820 802 786 776 772 769 766 764 763 762 762 761 758 758 757 755 755
658 663 666 670 675 677 680 683 687 693 700 709 717 719 715 709 708 715 723 726 721 715 715 719 725 732 734 732 734 735 737 742 747 755 765 767 761 756 752 750 751 753 760 769 769 767 769 769 766 765 764 767 771 769 770 784 801 801 795 800 803 801 804 813 819 820 822 830 832 830 820 804 790 778 769 769 768 764 762 761 760 760 758 757 757 755 754 755
658 663 667 670 673 675 678 680 685 692 697 705 715 714 707 703 706 711 713 716 715 711 715 722 724 729 734 734 736 737 733 734 743 752 759 761 759 757 753 746 745 748 752 759 762 764 769 769 765 765 765 764 765 766 768 777 790 797 800 803 800 794 794 806 817 817 819 827 825 819 809 798 792 780 766 763 761 758 760 759 758 758 756 757 756 753 753 754
658 663 667 669 671 674 677 679 684 690 696 704 709 707 705 706 707 706 705 708 710 706 708 717 720 723 729 732 735 737 734 735 743 748 751 755 752 749 751 747 742 744 745 749 753 751 758 768 766 764 769 765 759 763 767 767 773 787 799 796 792 797 798 802 815 821 825 828 819 810 806 802 801 788 768 763 762 757 757 757 756 756 756 756 753 751 752 752
659 663 667 670 671 673 676 680 683 687 697 704 703 703 708 706 701 702 703 705 708 709 707 709 713 716 722 727 730 733 733 734 742 746 746 750 745 738 745 748 743 742 741 744 752 747 747 766 774 768 770 769 765 770 777 776 775 778 782 780 785 802 807 804 810 816 822 824 812 806 806 801 797 784 765 761 761 755 753 755 755 754 754 753 750 750 751 750
659 663 669 672 672 674 678 680 683 687 697 702 700 702 707 704 699 699 702 704 707 710 709 708 710 713 717 720 722 727 729 729 738 743 740 742 742 734 736 741 741 742 740 742 751 747 742 759 774 772 770 771 772 777 781 784 785 780 778 779 778 787 795 795 796 798 807 813 807 804 806 795 783 774 764 759 756 750 749 751 752 751 750 749 749 749 749 748
660 665 672 674 672 675 678 681 686 691 695 697 697 699 701 702 701 699 701 706 710 711 709 708 709 711 715 717 717 721 723 723 730 735 732 732 735 734 733 736 738 738 739 743 746 746 745 751 764 774 775 771 770 771 769 773 781 781 784 787 780 781 788 789 788 789 796 805 804 804 801 782 766 761 758 754 748 744 744 746 747 746 745 747 748 747 747 747
661 667 674 674 674 676 679 685 691 692 692 694 696 697 697 699 701 702 704 707 711 712 710 711 712 711 712 714 715 717 719 721 724 727 727 726 726 728 729 730 732 733 739 745 745 746 747 747 756 772 775 767 762 758 755 758 763 765 772 775 774 778 786 792 797 792 790 795 796 799 795 772 752 749 749 747 742 740 742 743 742 741 742 745 746 745 746 746
662 670 675 675 676 677 680 687 690 689 691 693 694 694 694 696 699 704 707 708 710 712 712 714 717 715 711 710 711 713 716 720 722 722 722 721 719 719 721 723 727 729 734 740 740 741 743 746 755 766 768 765 762 758 757 758 758 758 764 766 768 774 779 788 796 791 788 790 788 794 793 765 742 741 742 741 739 738 740 740 739 740 741 743 744 744 746 746
666 672 675 675 678 679 681 687 690 690 690 689 689 691 691 694 698 701 705 708 709 711 712 716 719 717 712 710 710 712 715 718 720 719 718 717 715 712 713 719 725 729 732 735 737 740 743 746 756 767 769 767 765 762 760 760 761 765 768 767 768 769 768 772 777 780 786 787 784 795 794 763 741 740 740 738 738 737 738 738 738 740 742 743 744 744 746 746
668 672 675 676 679 679 681 686 690 691 689 686 687 689 688 690 694 697 701 705 707 708 710 714 717 716 713 712 711 710 713 717 718 719 718 717 714 711 710 715 722 727 729 729 731 737 741 744 751 763 770 771 770 768 768 769 769 768 768 768 766 763 766 770 772 778 783 777 777 790 785 758 742 740 739 739 739 736 737 738 737 739 741 743 743 744 745 745
667 674 678 678 678 679 682 685 686 687 688 688 690 691 690 692 694 695 698 702 704 705 707 711 714 715 716 717 715 712 712 714 717 719 720 719 717 713 711 714 720 724 724 724 725 730 737 740 741 744 750 753 753 750 751 757 762 760 759 762 761 757 761 764 769 779 778 768 770 777 768 753 743 738 737 739 738 736 737 738 738 738 740 741 741 742 742 743
665 674 681 682 682 682 685 686 685 685 687 690 694 694 694 696 697 695 696 701 703 702 705 709 710 713 718 719 719 720 718 716 717 720 722 722 719 717 714 715 719 721 722 726 728 729 735 739 735 730 726 725 726 726 725 732 745 752 752 753 754 753 754 758 766 772 766 764 772 767 756 752 747 740 738 739 740 738 736 738 738 738 739 739 739 740 740 740
664 673 678 681 684 687 688 689 688 687 685 687 693 696 696 698 699 697 697 699 700 700 703 708 706 708 714 716 717 723 724 722 721 722 725 725 721 718 717 716 719 721 722 727 729 729 736 739 735 730 725 720 723 726 724 728 737 743 746 750 754 756 758 761 763 758 754 768 776 761 753 757 752 745 742 738 736 735 733 736 737 735 737 737 738 739 739 740
667 672 674 675 680 686 688 689 689 689 686 685 690 693 695 697 698 698 698 699 699 697 701 708 707 703 706 709 711 717 723 724 724 724 726 726 723 721 719 717 718 720 723 727 727 728 736 739 733 732 730 726 725 725 724 728 732 733 738 745 749 752 755 757 756 749 750 762 759 746 749 752 740 737 738 731 728 730 730 733 734 733 736 737 738 738 737 738
669 672 673 674 678 682 684 685 687 688 686 685 689 692 693 696 698 697 697 699 701 698 697 704 707 703 704 704 704 711 718 718 720 724 725 725 724 722 722 722 719 720 724 727 727 726 732 736 734 734 734 731 729 726 723 726 730 733 737 739 740 744 745 744 745 742 744 749 742 735 741 736 720 722 728 724 725 729 728 730 732 733 735 735 735 735 735 736
675 676 676 676 680 682 683 684 688 689 686 685 689 691 692 696 698 697 695 697 702 701 697 699 704 705 706 703 700 705 710 708 712 718 720 723 724 722 722 721 718 720 725 727 726 725 726 731 734 737 738 735 732 728 725 724 727 732 736 736 738 742 743 743 741 740 746 748 737 733 738 730 715 716 723 723 725 728 727 729 730 731 732 732 732 732 732 733
679 679 677 677 682 684 683 684 687 688 689 690 691 691 693 696 697 695 694 693 696 698 698 700 705 708 709 707 703 703 704 703 705 709 711 716 719 718 719 719 718 722 726 727 727 728 730 732 733 737 738 733 729 728 725 722 724 730 734 736 738 740 739 738 734 732 737 738 734 739 740 726 714 715 720 721 723 725 726 728 728 728 729 730 728 727 728 730
679 680 678 678 683 686 685 685 686 689 692 692 690 689 691 693 694 694 696 696 695 696 699 702 705 708 710 711 705 701 702 701 701 704 708 712 715 715 718 721 722 724 727 728 728 730 734 734 732 733 730 724 724 726 724 726 732 731 724 720 723 724 724 725 724 721 722 724 730 735 725 709 707 714 717 718 719 721 723 723 723 725 727 726 723 721 724 725